Tracking 20942 objects as of 9-Jul-2020
HD Live streaming from Space Station
objects crossing your sky now

FENGYUN 1C DEB

Track FENGYUN 1C DEB now!
10-day predictions


NORAD ID: 37004
Int'l Code: 1999-025ECL
Perigee: 588.9 km
Apogee: 825.9 km
Inclination: 97.7 °
Period: 98.8 minutes
Semi major axis: 7078 km
RCS: 0.0081 m2 (small)
Launch date: May 10, 1999
Source: People's Republic of China (PRC)
Launch site: Taiyaun Space Center, China (TSC)

Note: This is SATELLITE DEBRIS
aabbcc
Your satellite tracking list
Your tracking list is empty




NASA's NSSDC Master Catalog

Two Line Element Set (TLE):
1 37004U 99025ECL 13115.65201742 +.00000961 +00000-0 +18262-3 0  9995
2 37004 097.7351 265.1051 0167463 249.2509 170.6123 14.57804227004088
Source of the keplerian elements: AFSPC